Location: Luxembourg
(49.6117°N, 6.1300°E)
Time: 04:10:19
(UTC+01:00)

ISS - Pass Details

Date: 04 December 2021
Orbit: 413 x 422 km, 51.6° (Epoch: 22 January)

Event Time Altitude Azimuth Distance (km) Brightness Sun altitude
Rises 19:26:28 0° 286° (WNW) 2,382 1.2 -26.5°
Reaches altitude 10° 19:28:52 10° 270° (W) 1,511 0.1 -26.9°
Enters shadow 19:30:53 21° 236° (SW) 1,023 -1.2 -27.2°
